Powrót do katalogu

STARLINK-34227

AktywnyŁącznośćVLEO
NORAD 64178·PAYLOAD·🇺🇸 United States

Wystrzelony May 28, 2025 z Cape Canaveral Space Force Station

Loading…

Następne Przeloty (najbliższe 24 godziny)

TLE

ŚwieżeSource: CelesTrak SupGP

Epoka: Sep 14, 2026, 20:52 UTC

1 64178C 25113J   26257.86993056  .00015476  00000+0  45738-3 0  2575
2 64178  53.1585 291.7934 0001108  87.7439  74.0118 15.34373614    17

Śledź STARLINK-34227 w czasie rzeczywistym z AllMySat

Download on the App Store